Elmendorf AFB, AK

4:10 PM AKDT on October 19, 2017 (GMT -0800)
Elmendorf Air Force Base

Weather History for PAED - March, 2013

Change the Weather History Date:

Saturday, March 16, 2013

  Actual Average Record
Temperature  
Mean Temperature 17 °F -  
Max Temperature 30 °F 32 °F 53 °F (1998)
Min Temperature 5 °F 16 °F -11 °F (2007)
Degree Days  
Heating Degree Days 48    
Moisture  
Dew Point 2 °F    
Average Humidity 52    
Maximum Humidity 73    
Minimum Humidity 30    
Precipitation  
Precipitation 0.00 in - - ()
Sea Level Pressure  
Sea Level Pressure 29.99 in    
Wind  
Wind Speed 3 mph (NE)    
Max Wind Speed 8 mph    
Max Gust Speed -    
Visibility 10 miles    
Events      
Averages and records for this station are not official NWS values.
T = Trace of Precipitation, MM = Missing Value Source: NWS Daily Summary

Daily Weather History Graph

Daily Weather History Graph

Search for Another Location

Airport or City:

Trip Planner

Search our weather history database for the weather conditions in past years. The results will help you decide how hot, cold, wet, or windy it might be!

Date:

Astronomy

Mar. 16, 2013 Rise Set
Actual Time 8:11 AM AKDT 8:04 PM AKDT
Civil Twilight 7:28 AM AKDT 8:48 PM AKDT
Nautical Twilight 6:37 AM AKDT 9:39 PM AKDT
Astronomical Twilight 5:41 AM AKDT 10:35 PM AKDT
Moon 9:20 AM AKDT (3/16) 1:51 AM AKDT (3/16)
Length of Visible Light 13h 19m
Length of Day
11h 53m
Waxing Crescent, 24% of the Moon is Illuminated
Mar 16
Waxing Crescent
Mar 19
First Quarter
Mar 27
Full
Apr 2
Last Quarter
Apr 10
New

Hourly Weather History & Observations

Time (AKDT) Temp. Windchill Dew Point Humidity Pressure Visibility Wind Dir Wind Speed Gust Speed Precip Events Conditions
12:55 AM 12.2 °F - 2.5 °F 65% 29.86 in 10.0 mi Calm Calm - N/A   Clear
1:55 AM 13.1 °F 7.1 °F 1.9 °F 61% 29.86 in 10.0 mi East 3.5 mph - N/A   Clear
2:55 AM 5.9 °F -1.1 °F -2.7 °F 68% 29.88 in 10.0 mi East 3.5 mph - N/A   Clear
3:55 AM 16.7 °F 6.2 °F 2.3 °F 53% 29.89 in 10.0 mi NE 8.1 mph - N/A   Clear
4:55 AM 15.6 °F 4.9 °F 1.4 °F 54% 29.91 in 10.0 mi NNE 8.1 mph - N/A   Clear
5:55 AM 14.5 °F 3.6 °F 0.1 °F 53% 29.92 in 10.0 mi ENE 8.1 mph - N/A   Clear
6:55 AM 14.5 °F 3.6 °F 0.5 °F 54% 29.94 in 10.0 mi ENE 8.1 mph - N/A   Clear
7:55 AM 13.6 °F 4.6 °F 1.9 °F 60% 29.95 in 10.0 mi NE 5.8 mph - N/A   Clear
8:55 AM 5.0 °F - -2.6 °F 71% 29.97 in 10.0 mi Calm Calm - N/A   Clear
9:55 AM 5.4 °F - -1.5 °F 73% 29.99 in 10.0 mi Calm Calm - N/A   Clear
10:55 AM 15.8 °F 7.2 °F 0.5 °F 51% 30.00 in 10.0 mi Variable 5.8 mph - N/A   Clear
11:55 AM 19.6 °F 13.0 °F 2.5 °F 48% 30.01 in 10.0 mi ENE 4.6 mph - N/A   Clear
12:55 PM 21.0 °F - 2.7 °F 45% 30.03 in 10.0 mi Calm Calm - N/A   Clear
1:55 PM 24.6 °F - 3.2 °F 40% 30.03 in 10.0 mi Calm Calm - N/A   Clear
2:55 PM 26.1 °F 19.4 °F 5.4 °F 41% 30.04 in 10.0 mi North 5.8 mph - N/A   Clear
3:55 PM 27.7 °F 22.4 °F 3.6 °F 36% 30.03 in 10.0 mi NE 4.6 mph - N/A   Clear
4:55 PM 29.3 °F 25.6 °F 5.5 °F 37% 30.03 in 10.0 mi NNE 3.5 mph - N/A   Clear
5:55 PM 28.8 °F 22.6 °F 4.6 °F 36% 30.04 in 10.0 mi ENE 5.8 mph - N/A   Clear
6:55 PM 28.4 °F 22.2 °F 0.5 °F 30% 30.04 in 10.0 mi NE 5.8 mph - N/A   Clear
7:55 PM 25.0 °F - 2.5 °F 38% 30.06 in 10.0 mi Calm Calm - N/A   Clear
8:55 PM 23.5 °F - 8.1 °F 52% 30.07 in 10.0 mi Calm Calm - N/A   Clear
9:55 PM 17.6 °F - 5.0 °F 58% 30.08 in 10.0 mi Calm Calm - N/A   Clear
10:55 PM 14.0 °F 8.2 °F 3.7 °F 64% 30.09 in 10.0 mi East 3.5 mph - N/A   Clear
11:55 PM 13.5 °F - 3.2 °F 64% 30.10 in 10.0 mi Calm Calm - N/A   Clear